• In Romania
  • List of Countries
  • For 7 days
  • Water Temperature
  • Satellite Maps
  • Weather Map
  • Weather Widgets
  • user-avatar
    Login

    Hourly Weather Klagenfurt

    Today, 25 September, Tuesday

    Time Temperature Precipitation Wind Pressure Humidity
    00:00 +4°C° 0 mm 1 mps 699 mmHg 76%
    01:00 +4°C° 0 mm 1 mps 699 mmHg 77%
    02:00 +3°C° 0 mm 1 mps 699 mmHg 78%
    03:00 +3°C° 0 mm 1 mps 699 mmHg 79%
    04:00 +3°C° 0 mm 1 mps 699 mmHg 79%
    05:00 +4°C° 0 mm 1 mps 699 mmHg 77%
    06:00 +4°C° 0 mm 1 mps 700 mmHg 75%
    07:00 +5°C° 0 mm 1 mps 700 mmHg 72%
    08:00 +7°C° 0 mm 1 mps 701 mmHg 64%
    09:00 +8°C° 0 mm 2 mps 701 mmHg 55%
    10:00 +10°C° 0 mm 2 mps 702 mmHg 46%
    11:00 +12°C° 0 mm 2 mps 702 mmHg 44%
    12:00 +13°C° 0 mm 2 mps 702 mmHg 42%
    13:00 +13°C° 0 mm 2 mps 702 mmHg 40%
    14:00 +13°C° 0 mm 2 mps 702 mmHg 41%
    15:00 +13°C° 0 mm 2 mps 702 mmHg 42%
    16:00 +13°C° 0 mm 2 mps 701 mmHg 43%
    17:00 +9°C° 0 mm 2 mps 701 mmHg 51%
    18:00 +7°C° 0 mm 2 mps 701 mmHg 60%
    19:00 +5°C° 0 mm 1 mps 702 mmHg 68%
    20:00 +5°C° 0 mm 1 mps 702 mmHg 70%
    21:00 +4°C° 0 mm 1 mps 702 mmHg 73%
    22:00 +3°C° 0 mm 1 mps 703 mmHg 75%
    23:00 +3°C° 0 mm 1 mps 703 mmHg 76%

    Tomorrow, 26 September, Wednesday

    Time Temperature Precipitation Wind Pressure Humidity
    00:00 +2°C° 0 mm 1 mps 703 mmHg 77%
    01:00 +2°C° 0 mm 1 mps 703 mmHg 78%
    02:00 +2°C° 0 mm 1 mps 703 mmHg 78%
    03:00 +1°C° 0 mm 0 mps 702 mmHg 78%
    04:00 0°C° 0 mm 0 mps 702 mmHg 79%
    05:00 +1°C° 0 mm 0 mps 702 mmHg 75%
    06:00 +2°C° 0 mm 0 mps 703 mmHg 72%
    07:00 +3°C° 0 mm 0 mps 703 mmHg 69%
    08:00 +6°C° 0 mm 1 mps 703 mmHg 60%
    09:00 +9°C° 0 mm 1 mps 703 mmHg 51%
    10:00 +12°C° 0 mm 1 mps 704 mmHg 42%
    11:00 +13°C° 0 mm 1 mps 704 mmHg 40%
    12:00 +14°C° 0 mm 1 mps 703 mmHg 38%
    13:00 +15°C° 0 mm 1 mps 703 mmHg 36%
    14:00 +15°C° 0 mm 1 mps 703 mmHg 38%
    15:00 +15°C° 0 mm 1 mps 702 mmHg 41%
    16:00 +14°C° 0 mm 1 mps 702 mmHg 44%
    17:00 +12°C° 0 mm 1 mps 702 mmHg 53%
    18:00 +9°C° 0 mm 1 mps 701 mmHg 62%
    19:00 +7°C° 0 mm 1 mps 701 mmHg 72%
    20:00 +6°C° 0 mm 1 mps 701 mmHg 72%
    21:00 +6°C° 0 mm 1 mps 701 mmHg 72%
    22:00 +6°C° 0 mm 1 mps 701 mmHg 73%
    23:00 +6°C° 0 mm 1 mps 701 mmHg 71%

    Day after tomorrow, 27 September, Thursday

    Time Temperature Precipitation Wind Pressure Humidity
    00:00 +6°C° 0 mm 1 mps 701 mmHg 69%
    01:00 +6°C° 0 mm 1 mps 701 mmHg 68%
    02:00 +6°C° 0 mm 1 mps 700 mmHg 66%
    03:00 +6°C° 0 mm 1 mps 700 mmHg 64%
    04:00 +6°C° 0 mm 1 mps 700 mmHg 62%
    05:00 +6°C° 0 mm 1 mps 700 mmHg 60%
    06:00 +7°C° 0 mm 1 mps 700 mmHg 58%
    07:00 +8°C° 0 mm 1 mps 700 mmHg 57%
    08:00 +11°C° 0 mm 1 mps 700 mmHg 49%
    09:00 +15°C° 0 mm 1 mps 701 mmHg 42%
    10:00 +19°C° 0 mm 1 mps 702 mmHg 34%
    11:00 +20°C° 0 mm 1 mps 701 mmHg 33%
    12:00 +21°C° 0 mm 1 mps 701 mmHg 32%
    13:00 +22°C° 0 mm 1 mps 701 mmHg 30%
    14:00 +21°C° 0 mm 1 mps 700 mmHg 35%
    15:00 +21°C° 0 mm 1 mps 700 mmHg 40%
    16:00 +20°C° 0 mm 1 mps 699 mmHg 45%
    17:00 +16°C° 0 mm 1 mps 699 mmHg 53%
    18:00 +13°C° 0 mm 1 mps 698 mmHg 60%
    19:00 +10°C° 0 mm 1 mps 697 mmHg 67%
    20:00 +10°C° 0 mm 1 mps 697 mmHg 68%
    21:00 +9°C° 0 mm 1 mps 697 mmHg 68%
    22:00 +9°C° 0 mm 1 mps 697 mmHg 69%
    23:00 +9°C° 0 mm 1 mps 696 mmHg 69%

    28 September, Friday

    Time Temperature Precipitation Wind Pressure Humidity
    00:00 +8°C° 0 mm 1 mps 696 mmHg 69%
    01:00 +8°C° 0 mm 1 mps 695 mmHg 69%
    02:00 +8°C° 0 mm 1 mps 695 mmHg 69%
    03:00 +8°C° 0 mm 1 mps 694 mmHg 68%
    04:00 +8°C° 0 mm 1 mps 694 mmHg 68%
    05:00 +8°C° 0 mm 1 mps 694 mmHg 67%
    06:00 +9°C° 0 mm 1 mps 694 mmHg 65%
    07:00 +9°C° 0 mm 1 mps 693 mmHg 64%
    08:00 +12°C° 0 mm 1 mps 694 mmHg 55%
    09:00 +16°C° 0 mm 1 mps 694 mmHg 47%
    10:00 +20°C° 0 mm 1 mps 695 mmHg 38%
    11:00 +21°C° 0 mm 1 mps 695 mmHg 36%
    12:00 +22°C° 0 mm 1 mps 694 mmHg 35%
    13:00 +23°C° 0 mm 1 mps 694 mmHg 33%
    14:00 +23°C° 0 mm 1 mps 694 mmHg 37%
    15:00 +22°C° 0 mm 1 mps 693 mmHg 42%
    16:00 +21°C° 0 mm 1 mps 693 mmHg 46%
    17:00 +18°C° 0 mm 1 mps 692 mmHg 54%
    18:00 +14°C° 0 mm 1 mps 692 mmHg 62%
    19:00 +12°C° 0 mm 1 mps 691 mmHg 69%
    20:00 +11°C° 0 mm 1 mps 691 mmHg 71%
    21:00 +10°C° 0 mm 1 mps 691 mmHg 73%
    22:00 +10°C° 0 mm 1 mps 691 mmHg 75%
    23:00 +10°C° 0 mm 1 mps 691 mmHg 77%

    29 September, Saturday

    Time Temperature Precipitation Wind Pressure Humidity
    00:00 +9°C° 0 mm 1 mps 691 mmHg 78%
    01:00 +9°C° 0 mm 1 mps 691 mmHg 80%
    02:00 +9°C° 0 mm 1 mps 691 mmHg 82%
    03:00 +9°C° 0 mm 1 mps 691 mmHg 83%
    04:00 +9°C° 0 mm 1 mps 691 mmHg 85%
    05:00 +9°C° 0 mm 1 mps 691 mmHg 85%
    06:00 +10°C° 0 mm 1 mps 691 mmHg 84%
    07:00 +10°C° 0 mm 1 mps 692 mmHg 84%
    08:00 +12°C° 0 mm 1 mps 692 mmHg 76%
    09:00 +15°C° 0 mm 1 mps 693 mmHg 67%
    10:00 +17°C° 0 mm 2 mps 694 mmHg 59%
    11:00 +17°C° 0.1 mm 2 mps 693 mmHg 61%
    12:00 +17°C° 0.1 mm 2 mps 693 mmHg 62%
    13:00 +16°C° 0.1 mm 2 mps 693 mmHg 64%
    14:00 +16°C° 0.1 mm 2 mps 693 mmHg 66%
    15:00 +15°C° 0.1 mm 2 mps 693 mmHg 69%
    16:00 +15°C° 0.1 mm 2 mps 693 mmHg 72%
    17:00 +13°C° 0.1 mm 2 mps 693 mmHg 76%
    18:00 +12°C° 0.1 mm 2 mps 693 mmHg 80%
    19:00 +10°C° 0.1 mm 2 mps 693 mmHg 84%
    20:00 +10°C° 0 mm 1 mps 693 mmHg 85%
    21:00 +9°C° 0 mm 1 mps 693 mmHg 85%
    22:00 +8°C° 0 mm 1 mps 694 mmHg 86%
    23:00 +8°C° 0 mm 1 mps 693 mmHg 86%

    30 September, Sunday

    Time Temperature Precipitation Wind Pressure Humidity
    00:00 +7°C° 0 mm 1 mps 693 mmHg 87%
    01:00 +6°C° 0 mm 1 mps 693 mmHg 87%
    02:00 +6°C° 0 mm 1 mps 693 mmHg 88%
    03:00 +5°C° 0 mm 1 mps 692 mmHg 88%
    04:00 +5°C° 0 mm 1 mps 692 mmHg 89%
    05:00 +5°C° 0 mm 1 mps 692 mmHg 87%
    06:00 +5°C° 0 mm 1 mps 692 mmHg 85%
    07:00 +5°C° 0 mm 1 mps 692 mmHg 83%
    08:00 +8°C° 0 mm 1 mps 692 mmHg 72%
    09:00 +10°C° 0 mm 1 mps 693 mmHg 61%
    10:00 +12°C° 0 mm 2 mps 693 mmHg 51%
    11:00 +13°C° 0 mm 2 mps 693 mmHg 47%
    12:00 +14°C° 0 mm 2 mps 693 mmHg 43%
    13:00 +15°C° 0 mm 2 mps 692 mmHg 39%
    14:00 +15°C° 0 mm 2 mps 692 mmHg 41%
    15:00 +14°C° 0 mm 1 mps 692 mmHg 43%
    16:00 +14°C° 0 mm 1 mps 691 mmHg 45%
    17:00 +12°C° 0 mm 1 mps 691 mmHg 55%
    18:00 +9°C° 0 mm 1 mps 691 mmHg 65%
    19:00 +7°C° 0 mm 1 mps 691 mmHg 75%
    20:00 +6°C° 0 mm 1 mps 691 mmHg 76%
    21:00 +6°C° 0 mm 1 mps 692 mmHg 78%
    22:00 +5°C° 0 mm 1 mps 692 mmHg 79%
    23:00 +5°C° 0 mm 1 mps 692 mmHg 80%
    Show more